Skip Page Navigation
NASA JPL Caltech
NASA Logo - Jet Propulsion Laboratory + View the NASA Portal
+ Near-Earth Object (NEO) Program
Search JPL
JPL Home Earth Solar System Stars & Galaxies Technology
JPL Solar System Dynamics
BODIES ORBITS EPHEMERIDES TOOLS PHYSICAL DATA DISCOVERY FAQ SITE MAP
JPL Small-Body Database Browser
Search: [ help ]  
12435 Sudachi (1996 BX)
Classification: Main-belt Asteroid          SPK-ID: 2012435
Ephemeris | Orbit Diagram | Orbital Elements | Physical Parameters | Discovery Circumstances ]

[ show orbit diagram ]
Orbital Elements at Epoch 2457000.5 (2014-Dec-09.0) TDB
Reference: JPL 8 (heliocentric ecliptic J2000)
 Element Value Uncertainty (1-sigma)   Units 
e .01898157742769495 6.004e-08  
a 2.894246586996473 2.8477e-08 AU
q 2.839309221310558 1.6642e-07 AU
i 3.266525797994345 5.9169e-06 deg
node 91.09394232592443 0.00010642 deg
peri 107.9555709089008 0.00019416 deg
M 225.239758472878 0.00016447 deg
tp 2457673.726188250076
(2016-Oct-12.22618825)
0.00082407 JED
period 1798.463886852335
4.92
2.6543e-05
7.267e-08
d
yr
n .2001708250200512 2.9543e-09 deg/d
Q 2.949183952682388 2.9017e-08 AU
  Orbit Determination Parameters
   # obs. used (total)      1137  
   data-arc span      6803 days (18.63 yr)  
   first obs. used      1996-01-17  
   last obs. used      2014-09-02  
   planetary ephem.      DE431  
   SB-pert. ephem.      SB431-BIG16  
   condition code      0  
   fit RMS      .52722  
   data source      ORB  
   producer      Otto Matic  
   solution date      2014-Sep-12 14:00:07  

Additional Information
 Earth MOID = 1.83819 AU 
 T_jup = 3.287 
[ show covariance matrix ]

Ephemeris | Orbit Diagram | Orbital Elements | Physical Parameters | Discovery Circumstances ]

Physical Parameter Table
Parameter Symbol Value Units Sigma Reference Notes
absolute magnitude H 13.3 mag n/a MPO267756  

12435 Sudachi           Discovered 1996 Jan. 17 by K. Endate and K. Watanabe at Kitami.
Sudachi (Citrus sudachi) is a small, round, green citrus fruit that is a specialty of Tokushima prefecture. The name was selected among proposals by children who attended the Fureai Space Festival, held in Anan city on the 2008 Japanese Space Day.
NOTE: some special characters may not display properly (any characters within {} are an attempt to place the proper accent above a character)
Reference: 20090409/MPCPages.arcLast Updated: 2009-04-10

Alternate Designations
 1996 BX = 1997 GG6 
Ephemeris | Orbit Diagram | Orbital Elements | Physical Parameters | Discovery Circumstances ]
ABOUT SSD CREDITS/AWARDS PRIVACY/COPYRIGHT GLOSSARY LINKS
FirstGov 2014-Oct-31 11:27 UT
(server date/time)  
NASA Home Page
Site Manager:   Donald K. Yeomans
Webmaster  Alan B. Chamberlin